Regional Weather Roundup
Issued by NWS

Home | Current Version | Previous Version | Text Only | Print | Product List | Glossary Off
Versions: 1 2 3 4 5 6 7 8 9 10 11 12 13 14 15 16 17 18 19 20 21 22 23 24 25 26 27 28 29 30 31 32 33 34 35 36 37 38 39 40 41 42 43 44 45 46 47 48 49 50

000
ASUS43 KMKX 250300
RWRWI

WISCONSIN REGIONAL WEATHER ROUNDUP
NATIONAL WEATHER SERVICE MILWAUKEE/SULLIVAN WI
1000 PM CDT SUN SEP 24 2017

NOTE: "FAIR" INDICATES FEW OR NO CLOUDS BELOW 12,000 FEET WITH NO
SIGNIFICANT WEATHER AND/OR OBSTRUCTIONS TO VISIBILITY.

WIZ001-002-006>008-014>016-023>028-250400-
NORTHWEST WISCONSIN

CITY           SKY/WX    TMP DP  RH WIND       PRES   REMARKS
SUPERIOR ARPT  RAIN      66  66  99 S5        29.87F
ASHLAND        CLEAR     77  61  57 S9        29.87S
HAYWARD        MOCLDY    76  62  62 SW8G17    29.92R
SIREN          CLOUDY    68  67  96 SE3       29.90S
CUMBERLAND     MOCLDY    72  61  68 CALM      29.91R
RICE LAKE      CLEAR     75  62  62 SE7       29.91F
CHETEK         PTCLDY    74  64  69 SE7       29.91S
LADYSMITH      CLEAR     74  60  60 S6        29.95S
EAU CLAIRE     NOT AVBL
MENOMONIE      PTCLDY    74  64  71 SE8       29.90S
NEW RICHMOND   CLOUDY    74  63  68 CALM      29.90F
OSCEOLA        CLOUDY    71  65  82 CALM      29.93S
$$

WIZ003>005-009-010-017-018-250400-
NORTH CENTRAL WISCONSIN

CITY           SKY/WX    TMP DP  RH WIND       PRES   REMARKS
MANITOWISH WTR NOT AVBL
ARBOR VITAE    CLEAR     72  60  64 S6        29.98S
WOODRUFF       CLEAR     72  60  64 S6        29.98S
RHINELANDER    CLEAR     72  62  71 S3        30.00R
EAGLE RIVER    CLEAR     69  60  72 S3        29.99R
LAND O LAKES   CLEAR     70  61  73 S5        29.99F
PHILLIPS       CLOUDY    72  61  68 S8        29.95F
TOMAHAWK       CLEAR     64  58  81 CALM      29.99R
MEDFORD        CLEAR     68  59  73 SE3       29.98R
MERRILL        CLEAR     71  61  71 S3        29.99R
$$

WIZ029-030-035-036-043>047-250400-
CENTRAL WISCONSIN

CITY           SKY/WX    TMP DP  RH WIND       PRES   REMARKS
WAUSAU         CLEAR     71  60  68 SE7       29.97R
MOSINEE        CLEAR     70  61  73 SE5       30.00S
MARSHFIELD     CLEAR     69  59  70 S6        29.97S
STEVENS POINT  CLEAR     71  59  66 S6        29.99S
WAUPACA        CLEAR     71  63  75 CALM      29.99R
WAUTOMA        CLEAR     66  62  87 CALM      29.99S
WISC RAPIDS    CLEAR     73  60  63 S6        29.99S
CAMP DOUGLAS   NOT AVBL
$$

WIZ011>013-019>022-031-037>040-048>050-250400-
NORTHEAST WISCONSIN

CITY           SKY/WX    TMP DP  RH WIND       PRES   REMARKS
ANTIGO         CLEAR     68  62  80 S5        30.01S
SHAWANO        CLEAR     75  65  70 S3        29.98R
OCONTO         CLEAR     73  65  76 S6        29.98F
STURGEON BAY   CLEAR     72  62  71 S9        30.00F
GREEN BAY      CLEAR     75  61  61 S9        29.99S
MANITOWOC      CLEAR     69  63  81 S5        30.01F
APPLETON       CLEAR     73  59  60 S8        29.99R
CLINTONVILLE   CLEAR     72  63  73 S5        29.98S
OSHKOSH        CLEAR     70  62  76 S7        29.99S
$$

WIZ032>034-041-042-053>061-250400-
SOUTHWEST WISCONSIN

CITY           SKY/WX    TMP DP  RH WIND       PRES   REMARKS
LA CROSSE      CLEAR     81  64  56 S6        29.93R HX  82
SPARTA         CLEAR     78  62  58 S6        29.96S
VIROQUA        CLEAR     74  63  66 S7        29.98S
BOSCOBEL       CLEAR     71  65  81 CALM      29.96S
PRAIRIE DU CHI CLEAR     75  61  61 CALM      29.95S
PLATTEVILLE    CLEAR     73  63  71 SE7       30.00R
$$

WIZ056-057-062-063-064-067-068-250400-
SOUTH CENTRAL WISCONSIN

CITY           SKY/WX    TMP DP  RH WIND       PRES   REMARKS
REEDSBURG      CLEAR     70  62  75 CALM      29.98S
BARABOO/DELLS  CLEAR     71  58  64 S5        29.99S
LONE ROCK      NOT AVBL
MINERAL POINT  CLEAR     73  61  64 SE5       30.01R
MADISON        CLEAR     77  61  57 S5        29.99S
MIDDLETON      CLEAR     67  63  86 CALM      30.01R
WATERTOWN      CLEAR     73  63  71 SE6       30.00S
MONROE         CLEAR     77  59  53 S9        30.00S
JANESVILLE     CLEAR     70  59  68 CALM      30.00S
$$

WIZ051-052-058>065-066-070>072-250400-
SOUTHEAST WISCONSIN

CITY           SKY/WX    TMP DP  RH WIND       PRES   REMARKS
MILWAUKEE      CLEAR     76  63  64 S7        30.02S
WAUKESHA       NOT AVBL
MILWAUKEE/TIMM CLEAR     75  54  46 S3        30.03S
RACINE         CLEAR     71  65  81 CALM      30.04S
BURLINGTON     CLEAR     66  62  86 CALM      30.02S
KENOSHA        CLEAR     69  62  78 SE3       30.02F
FOND DU LAC    CLEAR     73  59  61 S8        30.00S
SHEBOYGAN      CLEAR     67  65  93 CALM      30.01F
WEST BEND        N/A     68  63  83 CALM      30.03S
JUNEAU         CLEAR     72  61  69 SE8       30.02S
$$

LSZ147-162-250400-
LAKE SUPERIOR

STATION/POSITION TIME  TEMP    WIND        PRES    WAVE
                       AIR SEA DIR/SP/G            HT/PER
                 (UTC) (F)     (DEG/KT/KT) (MB)    (FT/S)
W MID LAKE BUOY  0150   63 56  170/  6/  8 1010.6F   0
DEVILS ISLAND    0200   75     160/ 10/ 14 1010.0F
PORT WING        0240   69     310/ 14/ 18 1011.5R
SAXON HARBOR     0230   76     190/  3/  7 1010.8S
$$

LMZ867-665-643>646-250400-
LAKE MICHIGAN

STATION/POSITION TIME  TEMP    WIND        PRES    WAVE
                       AIR SEA DIR/SP/G            HT/PER
                 (UTC) (F)     (DEG/KT/KT) (MB)    (FT/S)
S GREEN BAY BUOY 0200   74 70  180/ 10/ 12 1015.2F
N MID LAKE BUOY  0150   69 67  170/  8/ 10 1016.5F   1/ 3
NORTHPORT PIER   0240   74     170/  4/  9 1015.2F
KEWAUNEE LAKESHO 0230   65     170/  2/  3 1015.3F
SHEBOYGAN LAKESH 0200   74     190/  9/  9 1015.8F
PORT WASHINGTON  0240   71      CALM  /  2 1017.3S
ATWATER BUOY     0109   69 58  170/  6/  8 1016.7R
MILWAUKEE LAKESH 0230   72     140/  1/  1   N/A
S MID LAKE BUOY  0150   74 72   90/ 10/ 10 1016.7R   0
KENOSHA   LAKESH 0200   77     180/  3/  6 1016.3
$$

TC  - TEMPERATURE IN CELSIUS
VSB - VISIBILITY IN STATUTE MILES
WCI - WIND CHILL INDEX
HX  - HEAT INDEX





USA.gov is the U.S. government's official web portal to all federal, state and local government web resources and services.